SCP
0 0 -0 -0 -0 -0 -0 -0 -0 -0 -0 -0 -0 -0 -0 -0 -0 0 0 0 0 0 0 0 0 0 0 0 0 0 0 0 1 1 0 0 0 0 0 0 0 0 0
0 0 -0 -0 -0 -0 -0 -0 -0 -0 -0 -0 -0 -0 -0 0 0 0 0 0 0 0 1 0 0 0 0 0 0 0 0 1 1 1 1 1 0 0 0 0 0 0 0
0 -0 0 -0 -0 -0 -0 -0 -0 -0 -0 -0 0 0 0 0 0 0 0 0 0 0 0 1 1 0 0 0 0 0 0 1 1 1 1 1 0 0 0 0 1 1 1
-0 -0 0 -0 -0 -0 -0 -0 -0 -0 0 0 0 0 0 0 0 0 0 0 0 1 1 1 1 1 1 0 0 1 1 1 1 0 1 1 0 0 0 0 1 0 0
-0 -0 0 -0 -0 -0 -0 -0 -0 -0 -0 -0 -0 -0 -0 0 0 0 0 0 0 0 0 0 0 1 1 1 1 1 1 1 2 1 1 1 1 1 1 1 1 1 0
-0 -0 0 -0 0 0 -0 0 0 -0 -0 -0 -0 -0 -0 -0 0 0 0 0 0 0 0 0 0 0 0 1 1 1 1 1 1 1 1 1 1 1 1 1 1 1 1
-0 -0 -0 0 0 0 0 0 0 -0 -0 -0 0 0 0 0 0 0 0 0 0 0 0 0 0 0 0 0 0 1 1 1 1 1 1 1 2 2 2 1 1 1 1
-0 0 0 0 0 0 0 0 -0 -0 -0 -0 0 0 0 0 0 0 0 0 0 0 0 0 0 0 0 0 0 0 1 2 1 1 1 2 1 2 1 2 2 1 1
0 0 0 0 0 0 0 -0 -0 -0 -0 -0 0 0 0 0 0 0 0 0 0 0 0 0 0 0 0 0 0 0 0 0 0 1 1 2 1 1 1 1 1 1 1
0 0 0 0 0 0 0 0 -0 -0 -0 -0 -0 0 0 0 0 0 0 0 0 0 0 0 0 0 0 0 0 0 0 0 0 0 0 1 2 1 1 0 0 1 1
0 0 0 0 0 0 0 0 0 0 0 0 0 0 0 0 0 0 0 0 0 0 0 0 0 0 0 0 0 0 0 0 0 0 0 0 1 2 1 0 1 1 1
0 0 0 0 0 0 0 0 0 0 0 0 0 0 0 0 0 0 0 0 0 0 0 0 0 0 0 0 0 0 0 0 0 0 0 0 0 0 1 2 1 1 0
0 0 0 0 0 0 0 0 0 0 0 0 0 0 0 0 0 0 0 0 0 0 0 0 0 0 0 0 0 0 0 0 0 0 0 0 0 0 0 1 2 2 1
0 0 0 0 0 0 0 0 0 0 0 0 0 0 -0 -0 0 0 0 0 0 0 0 0 0 0 0 0 0 0 0 0 0 0 0 0 0 0 0 0 1 2 2
0 0 0 0 0 0 0 0 0 0 0 0 0 0 -0 -0 0 0 0 0 0 0 0 0 0 0 0 0 0 0 0 0 0 0 0 0 0 0 0 0 0 1 2
0 0 0 0 0 0 0 0 0 0 0 0 0 0 0 0 0 0 0 0 0 0 0 0 0 0 0 0 0 0 0 0 0 0 0 0 0 0 0 0 0 0 1
0 0 0 0 0 0 0 0 0 0 0 0 0 0 0 0 0 0 0 0 0 0 0 0 0 0 0 0 0 0 0 0 0 0 0 0 0 0 0 0 0 0 0
0 0 0 0 0 0 0 0 0 0 0 0 0 0 0 0 0 0 0 0 0 0 0 0 0 0 0 0 0 0 0 0 0 0 0 0 0 0 0 0 0 0 0
0 0 0 0 0 0 0 0 0 0 0 0 0 0 0 0 0 0 0 0 0 0 0 0 0 0 0 0 0 0 0 0 0 0 0 0 0 0 0 0 0 0 0
0 0 0 0 0 0 0 0 0 0 0 0 0 0 0 0 0 0 0 0 0 0 0 0 0 0 0 0 0 0 0 0 0 0 0 0 0 0 0 0 0 0 0
0 0 0 0 0 0 0 0 0 0 0 0 0 0 0 0 0 0 0 0 0 0 0 0 0 0 0 0 0 0 0 0 0 0 0 0 0 0 0 0 0 0 0
0 0 0 0 0 0 0 0 0 0 0 0 0 0 0 0 0 0 0 0 0 0 0 0 0 0 0 0 0 0 0 0 0 0 0 0 0 0 0 0 0 0 0
0 0 0 0 0 0 0 0 0 0 0 0 0 0 0 0 0 0 0 0 0 0 0 0 0 0 0 0 0 0 0 0 0 0 0 0 0 0 0 0 0 0 0
0 0 0 0 0 0 0 0 0 0 0 0 0 0 0 0 0 0 0 0 0 0 0 0 0 0 0 0 0 0 0 0 0 0 0 0 0 0 0 0 0 0 0
0 0 0 0 0 0 0 0 0 0 0 0 0 0 0 0 0 0 0 0 0 0 0 0 0 0 0 0 0 0 0 0 0 0 0 0 0 0 0 0 0 0 0
0 0 0 0 0 0 0 0 0 0 0 0 0 0 0 0 0 0 0 0 0 0 0 0 0 0 0 0 0 0 0 0 0 0 0 0 0 0 0 0 0 0 0
Wind_Speed_500mb
13 18 20 25 24 26 26 25 25 28 29 28 27 25 21 17 16 13 14 17 19 20 21 19 22 26 26 24 18 13 17 14 25 23 27 33 29 25 23 24 18 18 15
14 17 21 23 20 22 25 25 25 24 25 26 27 25 22 18 14 13 14 17 18 17 17 18 23 27 27 28 24 20 15 14 21 26 24 29 29 27 27 26 23 18 17
15 19 20 22 21 21 21 22 22 19 18 18 18 19 19 18 16 14 14 16 16 15 17 21 23 28 32 35 35 32 28 24 21 26 30 33 38 28 25 24 24 22 21
20 21 22 22 21 20 20 19 19 18 18 18 17 16 15 15 14 14 13 13 17 21 23 24 26 30 31 33 34 33 31 30 30 32 35 37 40 34 26 27 29 26 25
26 26 27 26 25 24 22 21 20 18 13 9 10 13 16 18 17 18 19 21 23 24 27 29 28 28 29 30 32 32 31 29 30 30 36 40 45 43 37 34 34 32 31
32 33 34 33 30 28 27 26 23 22 19 15 9 3 4 10 16 20 24 27 30 31 33 35 36 37 39 39 38 42 43 39 45 40 38 33 38 43 41 40 40 37 37
41 41 37 31 27 26 24 24 23 21 18 16 12 8 5 8 13 18 22 26 29 30 36 41 45 46 45 51 47 45 49 53 57 55 45 42 39 40 39 42 43 42 41
44 40 33 30 29 28 28 27 25 24 26 25 21 19 19 18 19 23 26 25 28 30 32 36 39 43 44 51 52 50 53 51 55 58 56 54 57 42 41 39 44 45 43
38 30 27 25 21 18 22 24 25 27 29 33 29 23 23 27 29 34 34 32 34 32 35 36 37 39 40 42 46 50 55 54 54 56 58 59 57 59 55 39 39 43 49
33 26 21 16 13 9 14 19 21 25 31 37 29 23 21 21 23 31 39 42 45 45 44 45 44 45 47 47 46 47 48 52 61 65 56 56 56 67 73 76 68 60 49
33 25 16 9 5 4 10 16 19 23 30 34 28 26 23 22 22 25 31 33 43 45 49 49 50 50 50 51 50 50 48 48 51 57 68 63 57 50 66 85 82 76 71
35 26 17 10 6 8 14 17 22 26 34 36 31 29 25 23 22 22 27 31 36 38 43 45 47 48 50 52 53 55 55 53 50 52 56 64 71 67 69 55 63 77 82
32 26 19 15 13 12 14 18 23 27 34 37 36 36 35 31 28 28 27 27 29 33 35 38 41 44 46 49 52 56 59 60 61 61 59 58 61 65 78 72 62 64 72
32 25 24 22 19 12 15 20 25 29 34 35 37 40 40 41 38 31 26 23 24 26 28 31 34 38 41 44 46 45 46 52 59 64 69 71 68 65 61 64 75 70 73
33 30 26 24 16 16 20 24 28 30 34 36 38 41 43 44 38 30 25 23 22 24 26 27 29 32 34 35 36 38 38 38 42 51 60 68 77 79 72 64 62 73 74
42 34 29 22 18 20 19 23 26 28 33 33 38 39 44 40 32 27 25 25 25 26 28 30 32 31 30 32 31 33 35 39 41 42 46 52 59 71 81 79 72 68 76
47 40 33 28 27 21 18 23 24 26 29 32 35 39 40 32 26 25 25 25 25 28 29 29 28 29 30 31 33 33 37 41 41 41 37 40 45 52 60 76 83 78 70
51 50 36 32 24 20 18 21 23 24 25 29 33 36 29 23 21 21 23 25 28 29 30 31 33 30 32 36 38 36 37 33 26 25 21 19 25 36 45 55 70 84 85
58 45 40 30 23 20 22 23 21 22 22 24 30 28 21 19 21 22 24 27 30 30 32 34 32 34 39 40 41 37 34 23 21 14 18 20 22 25 30 37 47 66 83
58 47 37 31 25 23 21 23 21 18 19 20 25 21 17 17 19 19 22 26 28 29 33 35 34 30 36 43 44 36 18 9 25 14 21 20 26 26 21 28 35 45 70
65 52 42 34 24 23 23 23 19 17 16 16 19 17 16 16 17 20 26 28 29 33 37 40 41 37 36 42 50 45 20 3 23 9 29 27 25 21 22 27 30 37 50
70 55 44 30 25 23 19 20 19 16 15 17 15 12 14 17 20 25 28 27 31 31 35 39 40 41 38 36 44 40 30 19 42 14 34 34 28 21 24 28 30 28 37
64 51 37 30 24 14 14 18 19 16 13 14 11 11 13 17 18 23 27 28 31 35 39 39 39 36 38 31 33 30 18 17 50 41 41 40 35 25 26 28 24 20 26
62 51 38 27 17 11 10 12 15 17 13 8 8 10 14 16 17 23 26 29 32 38 40 36 37 34 34 34 30 28 27 31 28 33 53 50 41 29 33 25 17 17 13
64 51 34 26 16 9 9 14 14 14 10 5 6 10 13 15 17 19 23 29 33 40 43 34 35 32 32 31 32 31 27 30 30 37 39 61 43 33 28 29 18 13 11
60 48 37 27 16 9 8 10 11 9 8 2 7 10 9 12 14 18 23 28 34 39 44 39 32 30 29 29 29 27 25 31 35 37 39 50 48 44 32 28 29 17 5
Wind_Direction_500mb
99 87 85 88 93 103 104 103 100 103 111 114 120 130 143 151 157 155 148 156 162 169 178 183 195 197 193 195 204 215 231 240 216 214 215 225 232 241 267 277 271 258 243
119 103 96 94 95 104 110 108 105 103 103 110 120 125 135 144 145 147 151 160 174 188 199 208 209 213 217 224 238 251 255 248 227 218 219 220 230 256 266 260 259 246 235
117 109 106 106 105 102 100 104 110 113 113 113 116 122 130 137 149 154 160 168 179 199 217 223 228 231 239 247 255 261 260 266 252 242 246 252 249 260 256 240 245 239 228
119 116 108 102 96 90 88 89 92 96 102 111 121 135 142 149 157 166 179 191 202 208 216 223 228 233 239 247 252 257 255 251 255 258 257 257 262 262 256 248 245 234 229
120 112 102 93 87 84 79 75 74 77 84 104 131 154 161 169 177 188 196 207 216 219 222 227 235 239 242 249 252 251 249 246 239 246 252 258 262 263 261 246 246 243 234
119 109 102 96 88 77 70 65 59 55 56 58 60 55 192 202 195 202 211 218 225 232 237 241 240 240 243 242 242 243 240 244 257 257 257 251 254 255 257 256 247 247 244
121 115 107 94 81 68 57 50 43 36 26 15 1 341 293 255 245 245 236 232 235 235 238 241 243 243 242 243 239 243 247 247 248 252 255 251 246 252 248 251 253 249 246
125 119 110 102 84 65 53 43 34 21 7 354 338 314 294 280 269 262 259 259 260 257 257 257 259 261 263 262 260 244 237 239 243 246 246 249 252 243 247 244 247 251 252
130 131 120 103 90 74 50 38 25 12 359 348 335 314 293 280 272 270 272 269 268 270 270 272 272 271 271 270 268 265 262 258 250 248 246 246 251 240 250 251 253 249 253
147 148 130 111 92 66 22 20 15 4 355 350 346 336 321 304 287 278 271 272 273 275 276 277 276 276 277 275 273 269 265 262 258 255 250 252 249 240 242 249 249 249 255
162 159 151 145 123 348 345 355 356 355 354 353 351 347 336 323 313 303 293 283 278 277 279 279 279 278 277 276 275 274 271 268 264 259 254 251 247 236 231 242 244 238 249
175 172 180 194 226 292 329 341 343 347 351 352 351 348 343 336 320 309 300 293 290 287 285 283 280 278 277 276 273 271 270 269 267 264 260 255 251 244 234 235 235 232 233
180 186 199 219 249 281 325 326 335 344 347 348 348 347 345 341 330 318 305 293 287 286 288 290 291 291 288 283 278 275 273 270 266 263 262 260 257 254 245 241 237 233 232
191 194 204 218 240 272 307 323 330 340 342 344 345 347 344 343 340 332 321 310 304 300 299 297 295 295 295 296 295 290 281 274 269 265 259 257 258 256 256 254 241 240 234
195 201 197 208 232 284 305 320 324 331 336 340 345 345 343 344 343 343 337 332 328 325 321 316 313 308 306 304 306 304 299 288 274 268 263 257 254 254 254 252 252 243 244
200 208 211 218 248 264 290 307 315 326 330 337 343 344 345 348 347 349 352 353 350 348 345 339 335 329 326 323 319 312 306 299 291 281 271 266 260 253 250 248 248 247 244
206 208 212 224 237 257 282 302 307 320 330 337 342 344 347 349 353 2 5 5 3 1 356 347 341 335 331 329 328 324 313 307 301 293 287 275 265 261 254 246 242 243 245
208 208 220 233 242 260 284 299 306 319 333 338 343 347 352 359 6 12 12 9 5 360 355 348 341 340 340 341 338 337 325 320 316 311 312 309 279 267 263 255 244 236 239
211 212 226 236 245 267 282 296 302 316 329 340 345 349 357 6 12 14 8 3 0 0 357 352 347 339 340 341 342 341 330 327 8 356 359 345 329 304 290 275 262 245 237
209 209 222 241 257 266 272 291 297 311 321 337 343 345 354 359 5 7 1 355 354 356 353 350 349 347 342 338 343 352 344 79 17 3 4 337 318 310 307 284 269 254 237
208 211 224 241 254 262 275 294 292 304 311 329 340 340 349 353 358 355 351 352 354 351 351 348 344 343 347 346 348 353 23 257 352 319 2 353 320 316 302 287 273 268 241
209 209 222 239 236 251 286 297 290 292 299 323 332 336 345 341 349 354 352 351 351 352 351 348 344 344 352 358 359 355 354 0 342 211 352 355 339 332 317 297 275 263 243
207 210 217 225 226 252 287 292 281 274 285 316 321 329 341 336 340 353 352 354 353 348 345 346 344 343 347 356 358 4 345 333 341 334 344 346 351 345 326 329 276 279 246
204 205 210 214 222 258 286 285 264 267 284 300 307 329 341 345 349 352 360 0 359 352 343 341 341 339 343 345 348 349 348 348 333 327 336 343 348 351 354 331 321 292 258
202 205 202 209 222 261 302 298 271 262 256 282 325 342 352 349 358 359 360 1 3 0 357 346 344 341 340 341 344 342 351 340 349 332 324 339 345 8 12 342 6 304 235
200 201 203 211 221 234 289 290 248 232 250 311 348 4 351 348 357 357 355 353 351 347 346 340 338 344 340 338 337 338 340 337 340 331 317 332 338 347 6 346 24 15 302
Wind_Speed_850mb
13 18 20 25 24 26 26 25 25 28 29 28 27 25 21 17 16 13 14 17 19 20 21 19 22 26 26 24 18 13 17 14 25 23 27 33 29 25 23 24 18 18 15
14 17 21 23 20 22 25 25 25 24 25 26 27 25 22 18 14 13 14 17 18 17 17 18 23 27 27 28 24 20 15 14 21 26 24 29 29 27 27 26 23 18 17
15 19 20 22 21 21 21 22 22 19 18 18 18 19 19 18 16 14 14 16 16 15 17 21 23 28 32 35 35 32 28 24 21 26 30 33 38 28 25 24 24 22 21
20 21 22 22 21 20 20 19 19 18 18 18 17 16 15 15 14 14 13 13 17 21 23 24 26 30 31 33 34 33 31 30 30 32 35 37 40 34 26 27 29 26 25
26 26 27 26 25 24 22 21 20 18 13 9 10 13 16 18 17 18 19 21 23 24 27 29 28 28 29 30 32 32 31 29 30 30 36 40 45 43 37 34 34 32 31
32 33 34 33 30 28 27 26 23 22 19 15 9 3 4 10 16 20 24 27 30 31 33 35 36 37 39 39 38 42 43 39 45 40 38 33 38 43 41 40 40 37 37
41 41 37 31 27 26 24 24 23 21 18 16 12 8 5 8 13 18 22 26 29 30 36 41 45 46 45 51 47 45 49 53 57 55 45 42 39 40 39 42 43 42 41
44 40 33 30 29 28 28 27 25 24 26 25 21 19 19 18 19 23 26 25 28 30 32 36 39 43 44 51 52 50 53 51 55 58 56 54 57 42 41 39 44 45 43
38 30 27 25 21 18 22 24 25 27 29 33 29 23 23 27 29 34 34 32 34 32 35 36 37 39 40 42 46 50 55 54 54 56 58 59 57 59 55 39 39 43 49
33 26 21 16 13 9 14 19 21 25 31 37 29 23 21 21 23 31 39 42 45 45 44 45 44 45 47 47 46 47 48 52 61 65 56 56 56 67 73 76 68 60 49
33 25 16 9 5 4 10 16 19 23 30 34 28 26 23 22 22 25 31 33 43 45 49 49 50 50 50 51 50 50 48 48 51 57 68 63 57 50 66 85 82 76 71
35 26 17 10 6 8 14 17 22 26 34 36 31 29 25 23 22 22 27 31 36 38 43 45 47 48 50 52 53 55 55 53 50 52 56 64 71 67 69 55 63 77 82
32 26 19 15 13 12 14 18 23 27 34 37 36 36 35 31 28 28 27 27 29 33 35 38 41 44 46 49 52 56 59 60 61 61 59 58 61 65 78 72 62 64 72
32 25 24 22 19 12 15 20 25 29 34 35 37 40 40 41 38 31 26 23 24 26 28 31 34 38 41 44 46 45 46 52 59 64 69 71 68 65 61 64 75 70 73
33 30 26 24 16 16 20 24 28 30 34 36 38 41 43 44 38 30 25 23 22 24 26 27 29 32 34 35 36 38 38 38 42 51 60 68 77 79 72 64 62 73 74
42 34 29 22 18 20 19 23 26 28 33 33 38 39 44 40 32 27 25 25 25 26 28 30 32 31 30 32 31 33 35 39 41 42 46 52 59 71 81 79 72 68 76
47 40 33 28 27 21 18 23 24 26 29 32 35 39 40 32 26 25 25 25 25 28 29 29 28 29 30 31 33 33 37 41 41 41 37 40 45 52 60 76 83 78 70
51 50 36 32 24 20 18 21 23 24 25 29 33 36 29 23 21 21 23 25 28 29 30 31 33 30 32 36 38 36 37 33 26 25 21 19 25 36 45 55 70 84 85
58 45 40 30 23 20 22 23 21 22 22 24 30 28 21 19 21 22 24 27 30 30 32 34 32 34 39 40 41 37 34 23 21 14 18 20 22 25 30 37 47 66 83
58 47 37 31 25 23 21 23 21 18 19 20 25 21 17 17 19 19 22 26 28 29 33 35 34 30 36 43 44 36 18 9 25 14 21 20 26 26 21 28 35 45 70
65 52 42 34 24 23 23 23 19 17 16 16 19 17 16 16 17 20 26 28 29 33 37 40 41 37 36 42 50 45 20 3 23 9 29 27 25 21 22 27 30 37 50
70 55 44 30 25 23 19 20 19 16 15 17 15 12 14 17 20 25 28 27 31 31 35 39 40 41 38 36 44 40 30 19 42 14 34 34 28 21 24 28 30 28 37
64 51 37 30 24 14 14 18 19 16 13 14 11 11 13 17 18 23 27 28 31 35 39 39 39 36 38 31 33 30 18 17 50 41 41 40 35 25 26 28 24 20 26
62 51 38 27 17 11 10 12 15 17 13 8 8 10 14 16 17 23 26 29 32 38 40 36 37 34 34 34 30 28 27 31 28 33 53 50 41 29 33 25 17 17 13
64 51 34 26 16 9 9 14 14 14 10 5 6 10 13 15 17 19 23 29 33 40 43 34 35 32 32 31 32 31 27 30 30 37 39 61 43 33 28 29 18 13 11
60 48 37 27 16 9 8 10 11 9 8 2 7 10 9 12 14 18 23 28 34 39 44 39 32 30 29 29 29 27 25 31 35 37 39 50 48 44 32 28 29 17 5
Wind_Direction_850mb
99 87 85 88 93 103 104 103 100 103 111 114 120 130 143 151 157 155 148 156 162 169 178 183 195 197 193 195 204 215 231 240 216 214 215 225 232 241 267 277 271 258 243
119 103 96 94 95 104 110 108 105 103 103 110 120 125 135 144 145 147 151 160 174 188 199 208 209 213 217 224 238 251 255 248 227 218 219 220 230 256 266 260 259 246 235
117 109 106 106 105 102 100 104 110 113 113 113 116 122 130 137 149 154 160 168 179 199 217 223 228 231 239 247 255 261 260 266 252 242 246 252 249 260 256 240 245 239 228
119 116 108 102 96 90 88 89 92 96 102 111 121 135 142 149 157 166 179 191 202 208 216 223 228 233 239 247 252 257 255 251 255 258 257 257 262 262 256 248 245 234 229
120 112 102 93 87 84 79 75 74 77 84 104 131 154 161 169 177 188 196 207 216 219 222 227 235 239 242 249 252 251 249 246 239 246 252 258 262 263 261 246 246 243 234
119 109 102 96 88 77 70 65 59 55 56 58 60 55 192 202 195 202 211 218 225 232 237 241 240 240 243 242 242 243 240 244 257 257 257 251 254 255 257 256 247 247 244
121 115 107 94 81 68 57 50 43 36 26 15 1 341 293 255 245 245 236 232 235 235 238 241 243 243 242 243 239 243 247 247 248 252 255 251 246 252 248 251 253 249 246
125 119 110 102 84 65 53 43 34 21 7 354 338 314 294 280 269 262 259 259 260 257 257 257 259 261 263 262 260 244 237 239 243 246 246 249 252 243 247 244 247 251 252
130 131 120 103 90 74 50 38 25 12 359 348 335 314 293 280 272 270 272 269 268 270 270 272 272 271 271 270 268 265 262 258 250 248 246 246 251 240 250 251 253 249 253
147 148 130 111 92 66 22 20 15 4 355 350 346 336 321 304 287 278 271 272 273 275 276 277 276 276 277 275 273 269 265 262 258 255 250 252 249 240 242 249 249 249 255
162 159 151 145 123 348 345 355 356 355 354 353 351 347 336 323 313 303 293 283 278 277 279 279 279 278 277 276 275 274 271 268 264 259 254 251 247 236 231 242 244 238 249
175 172 180 194 226 292 329 341 343 347 351 352 351 348 343 336 320 309 300 293 290 287 285 283 280 278 277 276 273 271 270 269 267 264 260 255 251 244 234 235 235 232 233
180 186 199 219 249 281 325 326 335 344 347 348 348 347 345 341 330 318 305 293 287 286 288 290 291 291 288 283 278 275 273 270 266 263 262 260 257 254 245 241 237 233 232
191 194 204 218 240 272 307 323 330 340 342 344 345 347 344 343 340 332 321 310 304 300 299 297 295 295 295 296 295 290 281 274 269 265 259 257 258 256 256 254 241 240 234
195 201 197 208 232 284 305 320 324 331 336 340 345 345 343 344 343 343 337 332 328 325 321 316 313 308 306 304 306 304 299 288 274 268 263 257 254 254 254 252 252 243 244
200 208 211 218 248 264 290 307 315 326 330 337 343 344 345 348 347 349 352 353 350 348 345 339 335 329 326 323 319 312 306 299 291 281 271 266 260 253 250 248 248 247 244
206 208 212 224 237 257 282 302 307 320 330 337 342 344 347 349 353 2 5 5 3 1 356 347 341 335 331 329 328 324 313 307 301 293 287 275 265 261 254 246 242 243 245
208 208 220 233 242 260 284 299 306 319 333 338 343 347 352 359 6 12 12 9 5 360 355 348 341 340 340 341 338 337 325 320 316 311 312 309 279 267 263 255 244 236 239
211 212 226 236 245 267 282 296 302 316 329 340 345 349 357 6 12 14 8 3 0 0 357 352 347 339 340 341 342 341 330 327 8 356 359 345 329 304 290 275 262 245 237
209 209 222 241 257 266 272 291 297 311 321 337 343 345 354 359 5 7 1 355 354 356 353 350 349 347 342 338 343 352 344 79 17 3 4 337 318 310 307 284 269 254 237
208 211 224 241 254 262 275 294 292 304 311 329 340 340 349 353 358 355 351 352 354 351 351 348 344 343 347 346 348 353 23 257 352 319 2 353 320 316 302 287 273 268 241
209 209 222 239 236 251 286 297 290 292 299 323 332 336 345 341 349 354 352 351 351 352 351 348 344 344 352 358 359 355 354 0 342 211 352 355 339 332 317 297 275 263 243
207 210 217 225 226 252 287 292 281 274 285 316 321 329 341 336 340 353 352 354 353 348 345 346 344 343 347 356 358 4 345 333 341 334 344 346 351 345 326 329 276 279 246
204 205 210 214 222 258 286 285 264 267 284 300 307 329 341 345 349 352 360 0 359 352 343 341 341 339 343 345 348 349 348 348 333 327 336 343 348 351 354 331 321 292 258
202 205 202 209 222 261 302 298 271 262 256 282 325 342 352 349 358 359 360 1 3 0 357 346 344 341 340 341 344 342 351 340 349 332 324 339 345 8 12 342 6 304 235
200 201 203 211 221 234 289 290 248 232 250 311 348 4 351 348 357 357 355 353 351 347 346 340 338 344 340 338 337 338 340 337 340 331 317 332 338 347 6 346 24 15 302